Regional Weather Roundup
Issued by NWS

Home | Current Version | Previous Version | Text Only | Print | Product List | Glossary On
Versions: 1 2 3 4 5 6 7 8 9 10 11 12 13 14 15 16 17 18 19 20 21 22 23 24 25 26 27 28 29 30 31 32 33 34 35 36 37 38 39 40 41 42 43 44 45 46 47 48 49 50
000
ASUS43 KDTX 270710
RWRMI
MICHIGAN HOURLY REGIONAL WEATHER ROUNDUP
NATIONAL WEATHER SERVICE DETROIT/PONTIAC MI
200 AM EST MON FEB 27 2017

NOTE: "FAIR" INDICATES FEW OR NO CLOUDS BELOW 12,000 FEET WITH NO
SIGNIFICANT WEATHER AND/OR OBSTRUCTION TO VISIBILITY.

MIZ047>049-052>055-059>063-066>070-074>076-081>083-270800-
SOUTHEAST LOWER MICHIGAN

CITY           SKY/WX    TMP DP  RH WIND       PRES   REMARKS
ADRIAN         CLEAR     29  23  78 SW8       30.12R WCI  21
ALMA           CLOUDY    37  24  57 SW9       30.02R WCI  31
ANN ARBOR      CLEAR     33  22  63 S9        30.09R WCI  25
BAD AXE        CLOUDY    37  25  61 SW9G16    30.00R WCI  30
CARO           CLOUDY    38  25  57 SW12G17   30.01R WCI  31
DETROIT CITY   PTCLDY    37  21  52 SW14      30.09R WCI  28
DETROIT        PTCLDY    36  22  56 SW15      30.11R WCI  27
FLINT          MOCLDY    38  23  55 SW13      30.05R WCI  30
GROSSE ILE     CLEAR     37  22  53 SW10      30.11R WCI  30
HILLSDALE      CLEAR     34  23  64 SW9       30.09R WCI  26
HOWELL         CLEAR     37  22  56 SW12G18   30.06R WCI  29

CITY           SKY/WX    TMP DP  RH WIND       PRES   REMARKS
JACKSON        CLEAR     37  22  54 SW14      30.08R WCI  28
LAMBERTVILLE   MOCLDY    38  22  52 SW7       30.13R WCI  33
LANSING        PTCLDY    37  22  54 SW15      30.05R WCI  28
LAPEER         FAIR      38  22  51 SW10      30.04R WCI  31
MASON          CLEAR     37  25  63 SW8       30.06R WCI  31
MONROE         CLEAR     37  24  60 SW13      30.12R WCI  28
MT. CLEMENS    PTCLDY    38  22  51 SW13      30.06R WCI  30
PONTIAC        CLEAR     37  20  50 SW8       30.05R WCI  31
PORT HOPE        N/A     37  25  61 SW9       29.97R WCI  30
PORT HURON     PTCLDY    37  21  52 SW7       30.07R WCI  32
TRI CITIES     MOCLDY    37  26  64 SW14      30.01R WCI  28
MIDLAND        CLOUDY    37  26  62 SW9       30.00R WCI  31
TROY           MOCLDY    37  20  50 SW10      30.10R WCI  29
SAGINAW HB     CLOUDY    37  25  60 SW12G17   30.01R WCI  30
$$
MIZ043>046-050>051-056>058-064>065-071>073-077>080-270800-
SOUTHWEST LOWER MICHIGAN

CITY           SKY/WX    TMP DP  RH WIND       PRES   REMARKS
BATTLE CREEK   CLEAR     35  24  64 SW13      30.07R WCI  26
BENTON HARBOR  PTCLDY    39  24  55 SW15      30.09R WCI  31
BIG RAPIDS     CLEAR     33  25  73 W8        29.99R WCI  26
COLDWATER      CLEAR     36  22  57 SW9       30.10R WCI  29
FREMONT        FAIR      35  26  68 W8        30.02R WCI  29
HOLLAND        CLEAR     38  30  73 SW16      30.05R WCI  29
GRAND RAPIDS   PTCLDY    37  26  64 SW14      30.04R WCI  28
IONIA          MOCLDY    37  24  61 SW12      30.03R WCI  29
KALAMAZOO      CLEAR     37  22  54 SW14      30.08R WCI  28
LUDINGTON      CLEAR     34  28  79 W7        30.02R WCI  28
MARSHALL       CLEAR     36  22  57 SW12      30.08R WCI  28
MOUNT PLEASANT MOCLDY    33  26  77 SW5       30.00R WCI  28
MUSKEGON       MOCLDY    38  31  76 W14       30.04R WCI  30
SOUTH HAVEN    CLEAR     38  28  67 SW15G25   30.07R WCI  29
$$
MIZ016>042-270800-
NORTHERN LOWER MICHIGAN

CITY           SKY/WX    TMP DP  RH WIND       PRES   REMARKS
ALPENA         CLOUDY    29  25  85 NW8       29.97R WCI  21
BEAVER ISLAND  PTCLDY    24  14  65 NW9       30.00R WCI  14
BELLAIRE       CLOUDY    28  17  63 NW5       30.01R WCI  23
CADILLAC       MOCLDY    28  25  88 SW6       29.95R WCI  21
CHARLEVOIX     CLOUDY    27  15  61 NW10G17   30.03R WCI  17
FRANKFORT      CLEAR     31  24  76 N6        30.01R WCI  25
GAYLORD        CLOUDY    26  16  65 NW5       29.95R WCI  20
GRAYLING       MOCLDY    29  23  76 NW8       29.97R WCI  21
HARBOR SPRINGS CLOUDY    26  14  61 W7G17     29.99R WCI  18
HOUGHTON LAKE  PTCLDY    30  24  78 SW9       29.96R WCI  22
MANISTEE       MOCLDY    35  23  61 NW13      30.00R WCI  26
OSCODA         CLEAR     29  23  78 SW7       29.97R WCI  22
PELLSTON       MOCLDY    24  12  60 NW12      29.99R WCI  13
ROGERS CITY    MOCLDY    27  21  79 NW8       29.98R WCI  18
TRAVERSE CITY  MOCLDY    30  20  66 N9        30.00R WCI  22
$$
MIZ007>008-015-270800-
EASTERN UPPER MICHIGAN

CITY           SKY/WX    TMP DP  RH WIND       PRES   REMARKS
KINROSS        CLEAR     15  12  88 W7        29.95R WCI   5
MACKINAC ISLAN CLEAR     22  13  69 W8        29.97R WCI  12
NEWBERRY       CLEAR     13   8  81 W6        29.96R WCI   4
S. S. MARIE    MOCLDY    24  12  60 W12G22    29.93R WCI  13
MUNISING         N/A     21   9  59 W8        29.99R WCI  11
$$
MIZ004>006-011>014-085-270800-
CENTRAL UPPER MICHIGAN

CITY           SKY/WX    TMP DP  RH WIND       PRES   REMARKS
MANISTIQUE     CLEAR     15   9  76 NW8       29.99R WCI   4
ESCANABA       CLEAR     17  11  77 W5        30.02R WCI  10
MENOMINEE      PTCLDY    24  12  60 N6        30.03R WCI  17
SAWYER-GWINN   CLEAR      5   2  86 CALM      29.97R
$$
MIZ001>003-009>011-084-270800-
WESTERN UPPER MICHIGAN

CITY           SKY/WX    TMP DP  RH WIND       PRES   REMARKS
IRON MOUNTAIN  CLEAR      7   2  80 CALM      29.96R
HOUGHTON       CLEAR     16   4  59 W3        29.93R
COPPER HARBOR    N/A     22  10  60 N15       29.96R WCI   9
IRONWOOD       CLEAR     -3  -7  82 CALM      29.95R
$$

ABBREVIATIONS USED IN REMARKS
   TC - TEMPERATURE IN CELSIUS
  WCI - WIND CHILL INDEX
   HX - HEAT INDEX
  VSB - VISIBILITY





USA.gov is the U.S. government's official web portal to all federal, state and local government web resources and services.